Location: Sevilla
(37.3933°N, 5.9839°W)
Time: 05:01:42
(UTC+02:00)

Transit 2A Rocket - Pass Details

Date: 26 June 2024
Orbit: 582 x 910 km, 66.7° (Epoch: 15 July)

Event Time Altitude Azimuth Distance (km) Brightness Sun altitude
Rises 07:14:04 0° 327° (NNW) 3,534 8.4 0.7°
Reaches altitude 10° 07:16:37 10° 324° (NW) 2,599 7.7 1.2°
Maximum altitude 07:22:34 57° 247° (WSW) 1,057 5.5 2.2°
Drops below altitude 10° 07:28:22 10° 170° (S) 2,527 7.5 3.2°
Sets 07:30:50 0° 166° (SSE) 3,429 8.2 3.7°
